This demonstration page uses our WeatherBlox Daily Observations layout. Learn more.

36.17497, -115.13722

Hourly Observations for June 5, 2015

Temp ( °F °C ) Dew Point ( °F °C ) Humidity (%) Winds ( mph kmh ) Pressure ( in mb ) Visibility ( mi km ) Precip ( " mm )
12:53 am 00:53 Clear 78 25.6 15 -9.4 9 9 SE 10 17 29.72 1006 10 16.0934 0 0
1:53 am 01:53 Clear 76 24.4 15 -9.4 10 10 ESE 9 15 29.71 1006 10 16.0934 0 0
2:53 am 02:53 Clear 74 23.3 14 -10 10 10 SE 8 13 29.72 1006 10 16.0934 0 0
3:53 am 03:53 Clear 73 22.8 19 -7.2 13 13 W 3 6 29.74 1007 10 16.0934 0 0
4:53 am 04:53 Clear 68 20 24 -4.4 19 19 N 6 9 29.75 1007 10 16.0934 0 0
5:53 am 05:53 Sunny 67 19.4 23 -5 19 19 Calm 29.77 1008 10 16.0934 0 0
6:53 am 06:53 Sunny 71 21.7 25 -3.9 18 18 NW 6 9 29.78 1009 10 16.0934 0 0
7:53 am 07:53 Sunny 75 23.9 19 -7.2 12 12 N 3 6 29.79 1009 10 16.0934 0 0
8:53 am 08:53 Sunny 78 25.6 16 -8.9 9 9 VRB 3 6 29.79 1009 10 16.0934 0 0
9:53 am 09:53 Sunny 81 27.2 25 -3.9 13 13 ESE 10 17 29.79 1009 10 16.0934 0 0
10:53 am 10:53 Sunny 82 27.8 29 -1.7 14 14 undefined N/A 29.78 1008 10 16.0934 0 0
11:53 am 11:53 Mostly Sunny 84 28.9 35 1.7 17 17 SE 8 13 29.76 1008 10 16.0934 0 0
12:53 pm 12:53 Mostly Sunny 86 30 31 -0.6 14 14 S 12 19 29.74 1007 10 16.0934 0 0
1:53 pm 13:53 Mostly Sunny 89 31.7 26 -3.3 10 10 SE 10 17 29.71 1006 10 16.0934 0 0
2:53 pm 14:53 Sunny 87 30.6 21 -6.1 9 9 S 15 24 29.7 1006 10 16.0934 0 0
3:53 pm 15:53 Sunny 90 32.2 4 -15.6 4 4 S 15 24 29.68 1005 10 16.0934 0 0
4:53 pm 16:53 Sunny 89 31.7 4 -15.6 4 4 SSW 20 31 29.67 1005 10 16.0934 0 0
5:53 pm 17:53 Sunny 88 31.1 9 -12.8 5 5 S 16 26 29.67 1005 10 16.0934 0 0
6:53 pm 18:53 Sunny 86 30 1 -17.2 4 4 S 13 20 29.67 1005 10 16.0934 0 0
7:53 pm 19:53 Sunny 84 28.9 1 -17.2 4 4 S 14 22 29.68 1005 10 16.0934 0 0
8:53 pm 20:53 Clear 82 27.8 2 -16.7 4 4 SSW 8 13 29.7 1006 10 16.0934 0 0
9:53 pm 21:53 Clear 80 26.7 3 -16.1 5 5 WSW 6 9 29.71 1006 10 16.0934 0 0
10:53 pm 22:53 Clear 78 25.6 7 -13.9 6 6 SE 5 7 29.74 1007 10 16.0934 0 0
11:53 pm 23:53 Clear 76 24.4 8 -13.3 7 7 Calm 29.75 1008 10 16.0934 0 0

Powered by AerisWeather